| time (UTC) | temp C | wind direction | speed KPH | gust KPH | rain 1hr cm | rain 24hr cm | rain mn cm | humidity % | barometer mb |
| 20260504045030 | 12 | 162 | 0.0 | 0.0 | 0.00 | 0.41 | 0.00 | 99 | |
| 20260504044029 | 12 | 163 | 0.0 | 0.0 | 0.00 | 0.41 | 0.00 | 99 | |
| 20260504043030 | 12 | 163 | 0.0 | 0.0 | 0.00 | 0.41 | 0.00 | 99 | |
| 20260504042030 | 12 | 163 | 0.0 | 0.0 | 0.00 | 0.41 | 0.00 | 99 | |
| 20260504041029 | 12 | 163 | 0.0 | 0.0 | 0.00 | 0.41 | 0.00 | 99 | |
| 20260504040030 | 12 | 163 | 0.0 | 0.0 | 0.00 | 0.41 | 0.00 | 99 | |
| 20260504035031 | 12 | 159 | 0.0 | 0.0 | 0.00 | 0.41 | 0.00 | 99 | |
| 20260504034030 | 12 | 167 | 0.0 | 0.0 | 0.00 | 0.41 | 0.00 | 99 | |
| 20260504033050 | 12 | 166 | 0.0 | 0.0 | 0.00 | 0.41 | 0.00 | 99 | |
| 20260504032030 | 12 | 165 | 0.0 | 0.0 | 0.00 | 0.41 | 0.00 | 99 | |
| 20260504031030 | 12 | 132 | 0.0 | 0.0 | 0.00 | 0.41 | 0.00 | 99 | |
| 20260504030050 | 12 | 132 | 0.0 | 0.0 | 0.00 | 0.41 | 0.00 | 99 | |
| 20260504025030 | 12 | 128 | 0.0 | 0.0 | 0.00 | 0.41 | 0.00 | 99 | |
| 20260504024030 | 12 | 128 | 0.0 | 0.0 | 0.00 | 0.41 | 0.00 | 99 | |
| 20260504023050 | 11 | 128 | 0.0 | 0.0 | 0.00 | 0.41 | 0.00 | 99 | |
| 20260504022030 | 11 | 128 | 0.0 | 0.0 | 0.00 | 0.41 | 0.00 | 99 | |
| 20260504021030 | 11 | 128 | 0.0 | 0.0 | 0.00 | 0.41 | 0.00 | 99 | |
| 20260504020029 | 11 | 128 | 0.0 | 0.0 | 0.00 | 0.41 | 0.00 | 99 | |
| 20260504015030 | 11 | 128 | 0.0 | 0.0 | 0.00 | 0.41 | 0.00 | 99 | |
| 20260504014030 | 11 | 128 | 0.0 | 0.0 | 0.00 | 0.41 | 0.00 | 99 | |
| 20260504013030 | 11 | 128 | 0.0 | 0.0 | 0.00 | 0.41 | 0.00 | 99 | |
| 20260504012030 | 11 | 128 | 0.0 | 0.0 | 0.00 | 0.41 | 0.00 | 99 | |
| 20260504011100 | 11 | 128 | 0.0 | 0.0 | 0.00 | 0.41 | 0.00 | 99 | |
| 20260504010030 | 11 | 128 | 0.0 | 0.0 | 0.00 | 0.41 | 0.00 | 99 | |
| 20260504005030 | 11 | 128 | 0.0 | 0.0 | 0.00 | 0.41 | 0.00 | 99 | |
| 20260504004030 | 12 | 128 | 0.0 | 0.0 | 0.00 | 0.41 | 0.00 | 99 | |
| 20260504003030 | 12 | 127 | 0.0 | 0.0 | 0.00 | 0.41 | 0.00 | 99 | |
| 20260504002030 | 12 | 127 | 0.0 | 0.0 | 0.00 | 0.41 | 0.00 | 99 | |
| 20260504001030 | 12 | 127 | 0.0 | 0.0 | 0.00 | 0.41 | 0.00 | 99 | |
| 20260504000030 | 12 | 127 | 0.0 | 0.0 | 0.00 | 0.41 | 0.00 | 99 | |
| 20260503235030 | 12 | 127 | 0.0 | 0.0 | 0.00 | 0.41 | 0.00 | 99 | |
| 20260503234030 | 12 | 127 | 0.0 | 0.0 | 0.00 | 0.41 | 0.00 | 99 | |
| 20260503233031 | 12 | 127 | 0.0 | 0.0 | 0.00 | 0.41 | 0.00 | 99 | |
| 20260503232030 | 12 | 127 | 0.0 | 0.0 | 0.00 | 0.41 | 0.00 | 99 | |
| 20260503231030 | 12 | 138 | 0.0 | 0.0 | 0.00 | 0.41 | 0.00 | 99 | |
| 20260503230051 | 12 | 138 | 0.0 | 0.0 | 0.00 | 0.41 | 0.00 | 99 | |
| 20260503225030 | 12 | 138 | 0.0 | 0.0 | 0.00 | 0.41 | 0.00 | 99 | |
| 20260503224030 | 12 | 138 | 0.0 | 0.0 | 0.00 | 0.41 | 0.00 | 99 | |
| 20260503223050 | 12 | 138 | 0.0 | 0.0 | 0.00 | 0.41 | 0.00 | 99 | |
| 20260503222030 | 13 | 138 | 0.0 | 0.0 | 0.00 | 0.41 | 0.00 | 99 | |
| 20260503221030 | 13 | 138 | 0.0 | 0.0 | 0.00 | 0.41 | 0.00 | 99 | |
| 20260503220031 | 13 | 138 | 0.0 | 0.0 | 0.00 | 0.41 | 0.00 | 99 | |
| 20260503215030 | 13 | 138 | 0.0 | 0.0 | 0.00 | 0.41 | 0.41 | 99 | |
| 20260503214031 | 13 | 138 | 0.0 | 0.0 | 0.00 | 0.41 | 0.41 | 99 | |
| 20260503213050 | 13 | 138 | 0.0 | 0.0 | 0.00 | 0.41 | 0.41 | 99 | |
| 20260503212030 | 13 | 138 | 0.0 | 0.0 | 0.00 | 0.41 | 0.41 | 99 | |
| 20260503211030 | 13 | 138 | 0.0 | 0.0 | 0.00 | 0.41 | 0.41 | 98 | |
| 20260503210050 | 13 | 153 | 0.0 | 0.0 | 0.00 | 0.41 | 0.41 | 98 | |
| 20260503205030 | 13 | 143 | 0.0 | 0.0 | 0.00 | 0.41 | 0.41 | 98 | |
| 20260503204031 | 13 | 166 | 0.0 | 0.0 | 0.00 | 0.41 | 0.41 | 98 | |
| 20260503203030 | 13 | 157 | 0.0 | 0.0 | 0.00 | 0.41 | 0.41 | 98 | |
| 20260503202030 | 13 | 157 | 0.0 | 0.0 | 0.00 | 0.41 | 0.41 | 97 | |
| 20260503201030 | 13 | 157 | 0.0 | 0.0 | 0.00 | 0.41 | 0.41 | 97 | |
| 20260503200100 | 13 | 157 | 0.0 | 0.0 | 0.41 | 0.41 | 0.41 | 97 | |
| 20260503195051 | 13 | 157 | 0.0 | 0.0 | 0.41 | 0.41 | 0.41 | 96 | |
| 20260503194031 | 13 | 149 | 0.0 | 0.0 | 0.41 | 0.41 | 0.41 | 96 | |
| 20260503193031 | 13 | 148 | 0.0 | 0.0 | 0.41 | 0.41 | 0.41 | 95 | |
| 20260503192131 | 14 | 148 | 0.0 | 0.0 | 0.41 | 0.41 | 0.41 | 94 | |
| 20260503191030 | 15 | 148 | 0.0 | 0.0 | 0.41 | 0.41 | 0.41 | 92 | |
| 20260503190051 | 16 | 143 | 0.0 | 0.0 | 0.00 | 0.00 | 0.00 | 87 | |
| 20260503185031 | 16 | 153 | 0.0 | 0.0 | 0.00 | 0.00 | 0.00 | 85 | |
| 20260503184031 | 16 | 243 | 0.0 | 0.0 | 0.00 | 0.00 | 0.00 | 89 | |
| 20260503183111 | 16 | 147 | 0.0 | 0.0 | 0.00 | 0.00 | 0.00 | 89 | |
| 20260503182030 | 17 | 154 | 0.0 | 0.0 | 0.00 | 0.00 | 0.00 | 88 | |
| 20260503181031 | 17 | 148 | 0.0 | 0.0 | 0.00 | 0.00 | 0.00 | 88 | |
| 20260503180031 | 17 | 148 | 0.0 | 0.0 | 0.00 | 0.00 | 0.00 | 88 | |
| 20260503175030 | 17 | 144 | 0.0 | 0.0 | 0.00 | 0.00 | 0.00 | 87 | |
| 20260503174031 | 17 | 145 | 0.0 | 0.0 | 0.00 | 0.00 | 0.00 | 86 | |
| 20260503173031 | 17 | 153 | 0.0 | 0.0 | 0.00 | 0.00 | 0.00 | 86 | |
| 20260503172031 | 17 | 129 | 0.0 | 0.0 | 0.00 | 0.00 | 0.00 | 86 | |
| 20260503171101 | 18 | 141 | 0.0 | 0.0 | 0.00 | 0.00 | 0.00 | 86 | |
| 20260503131031 | 20 | 123 | 0.0 | 0.0 | 0.00 | 0.00 | 0.00 | 77 | |
| 20260503081032 | 20 | 142 | 0.0 | 0.0 | 0.00 | 0.00 | 0.00 | 77 | |
| 20260503072032 | 15 | 143 | 0.0 | 0.0 | 0.00 | 0.00 | 0.00 | 95 | |
| 20260503071032 | 15 | 148 | 0.0 | 0.0 | 0.00 | 0.00 | 0.00 | 94 |